[[{"header":{"parameterUnit":"m.s-1","parameterCategory":1,"la1":30.2991,"la2":30.254,"lo1":-89.0895,"lo2":-89.0444,"dy":0.0017,"dx":0.0017,"nx":28,"ny":28,"refTime":"2025-04-30T03:00:00:Z","depth":0,"parameterNumber":2,"parameterNumberName":"U-component_of_WINDS"},"data":[0,0,0,0,0,0,0,0,0,0,0,0,0,0,0,0,0,0,0,0,0,0,0,0,0,0,0,0,0,0,0,0,0,0,0,0,0,0,0,0,0,0,0,0,0,0,0,0,0,0,0,0,0,0,0,0,0,0,-0.772,-0.772,0,-0.7736,-0.7736,-0.7736,-0.7743,-0.7743,-0.7743,-0.7743,-0.776,-0.7761,-0.7761,0,0,0,0,0,0,0,0,0,0,0,0,0,-0.7697,-0.7698,-0.772,-0.772,-0.772,-0.7736,-0.7736,-0.7736,-0.7743,-0.7743,-0.7743,-0.7743,-0.776,-0.7761,-0.7761,0,0,0,0,0,0,0,0,0,0,0,0,0,-0.771,-0.7698,-0.772,-0.7726,-0.7726,-0.7736,-0.7736,-0.7736,-0.7743,-0.7743,-0.7743,-0.7743,-0.776,-0.7761,-0.7761,-0.7767,0,0,-0.7764,-0.7764,0,0,0,0,0,0,0,0,-0.7709,-0.771,-0.7725,-0.7725,-0.7726,-0.7737,-0.7734,-0.7746,-0.7743,-0.7737,-0.7743,-0.7743,-0.7753,-0.7754,-0.7757,-0.7768,-0.7768,-0.7764,-0.7764,-0.7765,-0.7765,0,0,0,0,0,0,0,-0.7708,-0.771,-0.7726,-0.7725,-0.7726,-0.7728,-0.7729,-0.7737,-0.7745,-0.7737,-0.7738,-0.7739,-0.7753,-0.7756,-0.7758,-0.7769,-0.7764,-0.7764,-0.7765,-0.7765,-0.7784,-0.7784,0,0,0,0,0,0,-0.7706,-0.7709,-0.7726,-0.7727,-0.7717,-0.7728,-0.773,-0.7734,-0.7745,-0.7746,-0.7739,-0.774,-0.7755,-0.7757,-0.7758,-0.7765,-0.7765,-0.7765,-0.7766,-0.7784,-0.7784,-0.7784,0,0,0,0,0,0,-0.7705,-0.7707,-0.7725,-0.7718,-0.772,-0.7729,-0.7733,-0.7734,-0.7737,-0.7746,-0.7748,-0.7741,-0.7755,-0.7757,-0.7764,-0.7766,-0.7766,-0.7766,-0.7784,-0.7784,-0.7784,-0.7779,0,0,0,0,0,0,-0.7705,-0.7707,-0.7709,-0.7718,-0.7721,-0.7731,-0.7733,-0.7734,-0.7738,-0.7739,-0.7748,-0.775,-0.7755,-0.7763,-0.7765,-0.7767,-0.7767,-0.7784,-0.7784,-0.7784,-0.7779,-0.7779,-0.7779,0,0,0,0,0,-0.7704,-0.7708,-0.7709,-0.7711,-0.7723,-0.7731,-0.7732,-0.7738,-0.7738,-0.7741,-0.7746,-0.775,-0.7765,-0.7764,-0.7766,-0.7768,-0.7784,-0.7784,-0.7784,-0.7779,-0.7779,-0.7779,0,0,0,0,0,0,-0.7699,-0.7709,-0.7711,-0.7717,-0.7723,-0.7732,-0.7735,-0.7738,-0.7744,-0.7744,-0.7751,-0.7753,-0.776,-0.7765,-0.7763,-0.7774,-0.7775,-0.7776,-0.7771,-0.777,-0.777,-0.7769,-0.7767,0,0,0,0,0,-0.7699,-0.7704,-0.7712,-0.7717,-0.772,-0.7727,-0.773,-0.7734,-0.774,-0.7743,-0.775,-0.7756,-0.7763,-0.7767,-0.7773,-0.778,-0.7782,-0.7782,-0.7782,-0.7782,-0.7783,-0.7786,-0.7786,-0.7785,-0.7785,-0.7785,0,0,-0.7699,-0.7704,-0.7707,-0.7716,-0.7721,-0.7726,-0.7729,-0.7734,-0.7738,-0.7744,-0.7751,-0.7756,-0.7764,-0.7771,-0.7774,-0.7775,-0.7783,-0.7782,-0.7782,-0.7783,-0.7786,-0.7787,-0.7787,-0.7785,-0.7785,-0.7785,0,0,-0.77,-0.7705,-0.771,-0.7714,-0.7721,-0.7726,-0.7727,-0.7735,-0.7738,-0.7745,-0.775,-0.7755,-0.7766,-0.7771,-0.7775,-0.7779,-0.7782,-0.778,-0.778,-0.7783,-0.7783,-0.7784,-0.7785,-0.7785,-0.7781,-0.7781,-0.7781,0,-0.7699,-0.7707,-0.7712,-0.7717,-0.7721,-0.7725,-0.773,-0.7735,-0.7744,-0.7746,-0.7747,-0.776,-0.7766,-0.7774,-0.7775,-0.7778,-0.778,-0.778,-0.7783,-0.7783,-0.7783,-0.7785,-0.7785,-0.7781,-0.7781,-0.7781,-0.7781,0,-0.7705,-0.771,-0.7713,-0.7721,-0.7725,-0.773,-0.7736,-0.7739,-0.7743,-0.7747,-0.7754,-0.7761,-0.7769,-0.7771,-0.7774,-0.7779,-0.778,-0.7781,-0.7783,-0.7783,-0.7784,-0.7785,-0.778,-0.778,-0.778,-0.7781,0,0,-0.7705,-0.7715,-0.7716,-0.7719,-0.7727,-0.7732,-0.7737,-0.7743,-0.7747,-0.7753,-0.7757,-0.7766,-0.7767,-0.7772,-0.7776,-0.7779,-0.7781,-0.7781,-0.7781,-0.7781,-0.7787,-0.7786,-0.7786,-0.7783,-0.7783,-0.7783,-0.7787,0,-0.7708,-0.7717,-0.7721,-0.7728,-0.7733,-0.7737,-0.7741,-0.7747,-0.7751,-0.7756,-0.7761,-0.7767,-0.7769,-0.7771,-0.7775,-0.778,-0.7783,-0.778,-0.7788,-0.7788,-0.7786,-0.7787,-0.7786,-0.7788,-0.7787,-0.7787,-0.7787,0,-0.7713,-0.7718,-0.7725,-0.7732,-0.7734,-0.7738,-0.7745,-0.7749,-0.7756,-0.7758,-0.7763,-0.7767,-0.7773,-0.7773,-0.7781,-0.7779,-0.7783,-0.7786,-0.7786,-0.7788,-0.7788,-0.7788,-0.7789,-0.779,-0.7788,-0.7788,-0.7788,0,-0.7712,-0.7721,-0.7726,-0.7729,-0.7737,-0.774,-0.7744,-0.775,-0.7753,-0.7759,-0.7762,-0.7768,-0.7772,-0.7777,-0.7783,-0.7782,-0.779,-0.7791,-0.7793,-0.7793,-0.7795,-0.7795,-0.7797,-0.7797,-0.7797,-0.7797,-0.7797,0,-0.7715,-0.772,-0.7726,-0.7729,-0.7734,-0.7739,-0.7744,-0.7748,-0.7754,-0.7758,-0.7762,-0.7766,-0.7773,-0.7778,-0.7783,-0.7789,-0.779,-0.7793,-0.7794,-0.7793,-0.7793,-0.7796,-0.7796,-0.7797,-0.7797,-0.7797,-0.7797,0,-0.7716,-0.772,-0.7726,-0.7733,-0.7735,-0.7738,-0.7744,-0.7748,-0.7752,-0.7758,-0.7759,-0.7766,-0.7772,-0.7778,-0.7786,-0.7789,-0.7795,-0.7797,-0.7793,-0.7794,-0.7795,-0.7795,-0.7799,-0.78,-0.7799,-0.7799,-0.7799,0,-0.7718,-0.7721,-0.7728,-0.7731,-0.7734,-0.7739,-0.7742,-0.7747,-0.7751,-0.7758,-0.7761,-0.7767,-0.7772,-0.7782,-0.7788,-0.7794,-0.7796,-0.7797,-0.7797,-0.7795,-0.7796,-0.7796,-0.7796,-0.7797,-0.7797,-0.7797,-0.7797,0,-0.772,-0.7722,-0.7727,-0.7732,-0.7736,-0.7741,-0.7745,-0.7748,-0.7753,-0.7757,-0.7763,-0.7767,-0.7775,-0.7782,-0.7788,-0.7793,-0.7796,-0.7796,-0.7797,-0.7796,-0.7794,-0.7795,-0.7793,-0.7797,-0.7797,-0.7797,-0.7797,-0.7797,-0.7722,-0.7725,-0.773,-0.7735,-0.7739,-0.7743,-0.7746,-0.775,-0.7755,-0.7762,-0.7764,-0.777,-0.7776,-0.7786,-0.779,-0.7795,-0.7796,-0.7797,-0.7797,-0.7797,-0.7797,-0.7793,-0.7796,-0.7796,-0.7796,-0.7796,-0.7796,0,-0.7725,-0.7728,-0.7733,-0.7739,-0.7742,-0.7744,-0.7749,-0.7753,-0.7758,-0.7762,-0.7767,-0.7774,-0.778,-0.7786,-0.7792,-0.7795,-0.7796,-0.7796,-0.7796,-0.7797,-0.7796,-0.7795,-0.7795,-0.7795,-0.7795,-0.7795,-0.7795,-0.7795,-0.7727,-0.7732,-0.7734,-0.7741,-0.7745,-0.775,-0.7753,-0.7757,-0.7761,-0.7768,-0.7772,-0.7776,-0.7781,-0.7788,-0.7793,-0.7795,-0.7797,-0.7797,-0.7799,-0.7797,-0.7797,-0.7798,-0.7796,-0.7797,-0.7797,-0.78,-0.78,-0.78]},{"header":{"parameterUnit":"m.s-1","parameterCategory":1,"la1":30.2991,"la2":30.254,"lo1":-89.0895,"lo2":-89.0444,"dy":0.0017,"dx":0.0017,"nx":28,"ny":28,"refTime":"2025-04-30T03:00:00:Z","depth":0,"parameterNumber":3,"parameterNumberName":"V-component_of_WINDS"},"data":[0,0,0,0,0,0,0,0,0,0,0,0,0,0,0,0,0,0,0,0,0,0,0,0,0,0,0,0,0,0,0,0,0,0,0,0,0,0,0,0,0,0,0,0,0,0,0,0,0,0,0,0,0,0,0,0,0,0,4.2806,4.2807,0,4.2933,4.2935,4.2936,4.2939,4.2938,4.2936,4.2934,4.3061,4.3065,4.307,0,0,0,0,0,0,0,0,0,0,0,0,0,4.2562,4.2566,4.2806,4.2807,4.2809,4.2933,4.2935,4.2937,4.2939,4.2937,4.2936,4.2934,4.3059,4.3065,4.3071,0,0,0,0,0,0,0,0,0,0,0,0,0,4.2676,4.2567,4.2806,4.2826,4.2829,4.2933,4.2935,4.2937,4.294,4.2937,4.2935,4.2933,4.3057,4.3064,4.3071,4.3163,0,0,4.3094,4.3097,0,0,0,0,0,0,0,0,4.267,4.2685,4.2821,4.2824,4.2828,4.2918,4.2895,4.3013,4.294,4.2897,4.2934,4.2932,4.3015,4.3025,4.3054,4.3169,4.3174,4.3094,4.3099,4.3102,4.3104,0,0,0,0,0,0,0,4.2662,4.268,4.2856,4.2823,4.2827,4.2827,4.2841,4.2917,4.2968,4.2901,4.2902,4.2917,4.3016,4.3047,4.3057,4.3176,4.3094,4.31,4.3105,4.3108,4.3372,4.3375,0,0,0,0,0,0,4.265,4.2673,4.2852,4.286,4.2741,4.2833,4.2849,4.2891,4.2967,4.2976,4.2919,4.2916,4.3036,4.3049,4.3062,4.3174,4.3102,4.3108,4.3113,4.337,4.3373,4.3376,0,0,0,0,0,0,4.2645,4.2666,4.2847,4.2767,4.279,4.284,4.2888,4.2895,4.2926,4.298,4.2989,4.2941,4.3035,4.3052,4.3138,4.3179,4.3112,4.3118,4.3367,4.3371,4.3375,4.34,0,0,0,0,0,0,4.2638,4.2664,4.27,4.2768,4.2794,4.2923,4.2891,4.2899,4.2939,4.2938,4.3004,4.3013,4.3034,4.3127,4.3145,4.3187,4.3124,4.3363,4.3368,4.3373,4.3396,4.3404,4.3412,0,0,0,0,0,4.2629,4.2702,4.2702,4.2724,4.2841,4.2925,4.294,4.2965,4.2943,4.2979,4.3014,4.301,4.3171,4.3136,4.3157,4.3201,4.3361,4.3367,4.3373,4.3392,4.3402,4.3411,0,0,0,0,0,0,4.2636,4.2711,4.2712,4.2809,4.2861,4.2925,4.2972,4.2975,4.3033,4.3029,4.3056,4.3071,4.3157,4.3188,4.3147,4.3294,4.3263,4.3274,4.3271,4.3281,4.3289,4.328,4.313,0,0,0,0,0,4.265,4.2713,4.2774,4.2853,4.2879,4.2921,4.2959,4.2973,4.3028,4.3049,4.309,4.3142,4.3204,4.3244,4.3304,4.34,4.3414,4.3441,4.3449,4.3455,4.3464,4.3516,4.3529,4.3396,4.3396,4.3396,0,0,4.2677,4.2725,4.2763,4.2856,4.2898,4.2962,4.2939,4.3008,4.3056,4.3059,4.3144,4.3176,4.3235,4.3327,4.3369,4.3355,4.3504,4.3463,4.3467,4.3473,4.3524,4.3536,4.3548,4.34,4.3399,4.3399,0,0,4.2759,4.2802,4.2873,4.2916,4.298,4.3008,4.3025,4.3089,4.3111,4.3197,4.3201,4.3257,4.3364,4.3406,4.3441,4.354,4.354,4.3559,4.3601,4.3652,4.3662,4.3672,4.3707,4.3719,4.3567,4.3568,4.3568,0,4.2784,4.2882,4.2909,4.2978,4.3019,4.3026,4.3098,4.3137,4.3217,4.3245,4.3228,4.3363,4.3403,4.3505,4.3529,4.3557,4.3577,4.3551,4.3659,4.3669,4.3678,4.3712,4.3725,4.3569,4.3569,4.3569,4.3569,0,4.291,4.2978,4.3027,4.3106,4.3152,4.3222,4.3258,4.3301,4.3312,4.3341,4.3428,4.3477,4.3547,4.3572,4.3583,4.3676,4.3665,4.3654,4.3623,4.3692,4.3724,4.3737,4.3572,4.3572,4.3571,4.357,0,0,4.3,4.3094,4.3111,4.3147,4.3219,4.3271,4.3341,4.3412,4.3448,4.3503,4.3562,4.3652,4.3642,4.3683,4.3698,4.3743,4.3818,4.3726,4.3728,4.3741,4.3923,4.3931,4.3946,4.3818,4.3821,4.3823,4.3918,0,4.3091,4.3217,4.3243,4.3351,4.3414,4.3422,4.3483,4.3533,4.3562,4.3619,4.365,4.3714,4.3696,4.372,4.3765,4.3799,4.3855,4.3793,4.3872,4.3875,4.3857,4.3963,4.3972,4.4059,4.3931,4.3933,4.3934,0,4.3213,4.3272,4.3387,4.3451,4.3478,4.3533,4.36,4.3654,4.371,4.3728,4.3774,4.3784,4.3856,4.3823,4.3922,4.3879,4.3913,4.3935,4.3939,4.3947,4.3909,4.3973,4.4088,4.4101,4.3954,4.3953,4.3951,0,4.3267,4.3376,4.3459,4.3489,4.3566,4.3604,4.3637,4.3691,4.3732,4.379,4.3816,4.3881,4.3917,4.3966,4.3994,4.3967,4.4091,4.4059,4.4107,4.4106,4.4132,4.413,4.4253,4.4154,4.4154,4.4154,4.4153,0,4.3365,4.3435,4.3484,4.3535,4.3614,4.3643,4.3719,4.3752,4.3801,4.3858,4.3868,4.3921,4.3954,4.4011,4.4033,4.4112,4.4128,4.4143,4.4148,4.4143,4.4141,4.4165,4.4159,4.4157,4.4156,4.4156,4.4155,0,4.3439,4.3475,4.3566,4.3631,4.3649,4.3704,4.3759,4.3809,4.3838,4.391,4.3928,4.3974,4.4042,4.4074,4.4158,4.4173,4.4262,4.4263,4.4243,4.4245,4.4291,4.4286,4.4434,4.4454,4.4342,4.4343,4.4343,0,4.3499,4.3553,4.3625,4.3664,4.3699,4.3762,4.3804,4.3834,4.3877,4.3946,4.3987,4.4056,4.4113,4.4221,4.4261,4.4325,4.4327,4.4374,4.4337,4.4329,4.4328,4.4324,4.433,4.4381,4.4382,4.4383,4.4384,0,4.3602,4.3617,4.3678,4.3745,4.3795,4.3849,4.3902,4.3934,4.3972,4.402,4.409,4.4134,4.4221,4.4289,4.4356,4.4389,4.4393,4.4396,4.441,4.4404,4.4391,4.4399,4.4262,4.4392,4.4391,4.439,4.439,4.439,4.3671,4.372,4.3778,4.3845,4.3889,4.3938,4.3988,4.4024,4.4084,4.4157,4.4171,4.4246,4.4301,4.4391,4.4427,4.4485,4.4474,4.4495,4.45,4.4505,4.4507,4.4382,4.4497,4.4497,4.4497,4.4497,4.4496,0,4.3775,4.3813,4.3874,4.3949,4.4002,4.4002,4.4061,4.4104,4.4171,4.4222,4.4278,4.4359,4.4425,4.447,4.4537,4.4575,4.4578,4.4592,4.4589,4.4597,4.4513,4.4494,4.4588,4.4588,4.4588,4.4588,4.4588,4.4588,4.3835,4.3918,4.394,4.4044,4.4081,4.4156,4.4189,4.4234,4.4276,4.4366,4.4422,4.4451,4.45,4.457,4.4631,4.4642,4.4666,4.468,4.4691,4.4612,4.4602,4.4593,4.4576,4.4685,4.4685,4.4769,4.477,4.4771]}]]